Regional Weather Roundup
Issued by NWS

Home | Current Version | Previous Version | Text Only | Print | Product List | Glossary Off
Versions: 1 2 3 4 5 6 7 8 9 10 11 12 13 14 15 16 17 18 19 20 21 22 23 24 25 26 27 28 29 30 31 32 33 34 35 36 37 38 39 40 41 42 43 44 45 46 47 48 49 50

000
ASUS45 KABQ 260201
RWRNM
NEW MEXICO REGIONAL WEATHER ROUNDUP
NATIONAL WEATHER SERVICE ALBUQUERQUE NM
800 PM MDT MON JUL 25 2016

NOTE: "FAIR" MEANS FEW OR NO CLOUDS BELOW 12,000 FEET AGL WITH NO
       SIGNIFICANT WEATHER OR OBSTRUCTIONS TO VISION.

      THIS PRODUCT IS RELEASED AS TWO VERSIONS.  ONE VERSION NEAR
      THE TOP OF THE HOUR CONTAINING PRELIMINARY DATA FROM ALBUQUERQUE
      AND OTHER STATIONS.  A FINAL VERSION WITH ADDITIONAL DATA IS
      ISSUED ABOUT 10 MINUTES AFTER THE HOUR.

NMZ501-503-504-510>518-260300-
NORTHWEST PLATEAU/NORTHCENTRAL MOUNTAINS

CITY           SKY/WX    TMP DP  RH WIND       PRES   REMARKS
FARMINGTON     MOCLDY    75  55  49 E16       30.17S
LOS ALAMOS     FAIR      73  48  41 S7        30.34S
SANTA FE       FAIR      73  59  61 N5        30.27S
TAOS           FAIR      72  39  30 SE8       30.33S
ANGEL FIRE     FAIR      57  53  85 CALM      30.46S

$$
NMZ402-403-502-505>509-260300-
WESTCENTRAL MOUNTAINS/SOUTHWEST MOUNTAINS

CITY           SKY/WX    TMP DP  RH WIND       PRES   REMARKS
GALLUP         LGT RAIN  68  56  65 S16       30.26F
GRANTS         MOCLDY    71  56  58 SE6       30.31R
SILVER CITY    FAIR      81  51  35 NW10      30.13R

$$
NMZ407-409-411-412-260300-
SOUTHERN DESERTS

CITY           SKY/WX    TMP DP  RH WIND       PRES   REMARKS
LORDSBURG      FAIR      90  50  25 NW13      30.01S
DEMING         FAIR      93  44  18 E8        30.00R
LAS CRUCES     FAIR      93  41  16 SE7       30.03S
HOLLOMAN AFB   MOCLDY    87  63  45 NE7       29.99S
ALAMOGORDO     FAIR      86  54  32 NE6       30.02S
T OR C         FAIR      88  50  27 SE12      30.08R

$$
NMZ519>523-260300-
CENTRAL VALLEYS/CENTRAL HIGHLANDS

CITY           SKY/WX    TMP DP  RH WIND       PRES   REMARKS
ALBUQUERQUE    CLOUDY    80  54  40 W17       30.19S
DOUBLE EAGLE   RAIN      70  55  60 SW21      30.25R
MORIARTY ARPT  FAIR      76  48  37 NE15G22   30.27R
CLINES CORNERS MOCLDY    64  55  72 E9        30.33S
BELEN          FAIR      79  49  35 NW14      30.16R
SOCORRO        FAIR      89  43  20 SW6       30.10R

$$
NMZ524>526-539-540-260300-
SOUTHCENTRAL MOUNTAINS

CITY           SKY/WX    TMP DP  RH WIND       PRES   REMARKS
RUIDOSO          N/A     77  46  33 W5        30.30R

$$
NMZ527>531-260300-
NORTHEAST HIGHLANDS/NORTHEAST PLAINS

CITY           SKY/WX    TMP DP  RH WIND       PRES   REMARKS
LAS VEGAS      FAIR      68  51  54 S5        30.32R
RATON          FAIR      68  53  58 N7        30.28S
CLAYTON        LGT RAIN  73  58  59 VRB3      30.21R

$$
NMZ532>537-260300-
EASTCENTRAL PLAINS

CITY           SKY/WX    TMP DP  RH WIND       PRES   REMARKS
TUCUMCARI      LGT RAIN  71  64  78 N12G18    30.17R
CANNON AFB     CLOUDY    74  62  64 SW10      30.14S
CLOVIS AIRPORT MOCLDY    75  59  57 W15       30.13R

$$
NMZ028-029-538-260300-
SOUTHEAST PLAINS

CITY           SKY/WX    TMP DP  RH WIND       PRES   REMARKS
ROSWELL        FAIR      95  50  21 SE10      30.01R
ARTESIA        FAIR      93  55  27 E5        30.00S
CARLSBAD       FAIR      95  51  22 SE8       29.97R
HOBBS          FAIR      90  50  25 E8        30.03S


$$




USA.gov is the U.S. government's official web portal to all federal, state and local government web resources and services.